Location: Newark
(54.6833°N, 25.2833°E)
Time: 09:30:46
(UTC+00:00)

Tiros 1 despin weight - Pass Details

Date: 18 November 2019
Orbit: 594 x 642 km, 48.2° (Epoch: 10 December)

Event Time Altitude Azimuth Distance (km) Brightness Sun altitude
Rises 17:23:57 0° 270° (W) 2,857 ? -27.1°
Reaches altitude 10° 17:27:02 10° 248° (WSW) 1,960 ? -27.6°
Maximum altitude 17:29:39 15° 212° (SSW) 1,640 ? -27.9°
Enters shadow 17:30:27 15° 200° (SSW) 1,674 ? -28.1°
Drops below altitude 10° 17:32:18 10° 176° (S) 1,973 - -28.3°
Sets 17:35:26 0° 154° (SSE) 2,886 - -28.8°
